#timestamp,LO_Frequency,Hit,StdDev 
1692932415.9,286047002.8,N
1692932435.7,286047002.7,N
1692932455.6,286047002.7,N
1692932475.4,286047002.5,N
1692932495.2,286047004.9,N
1692932515.1,286047006.6,N
1692932516.0,286047006.6,N
1692932535.8,286047003.4,N
1692932555.6,286047001.9,N
1692932575.5,286047000.0,N
1692932595.3,286047003.8,N
1692932615.1,286047001.6,N
1692932635.9,286047003.2,N
1692932655.7,286047004.3,N
1692932675.5,286047001.6,N
1692932695.4,286047004.0,N
1692932715.2,286047001.4,N
1692932735.0,286047004.6,N
1692932735.9,286047004.6,N
1692932755.8,286047003.1,N
1692932775.6,286047004.2,N
1692932795.4,286047003.2,N
1692932815.3,286047004.0,N
1692932835.1,286047001.8,N
1692932855.8,286047001.5,N
1692932875.7,286047001.4,N
1692932895.5,286047001.3,N
1692932915.3,286047004.3,N
1692932935.2,286047003.7,N
1692932955.0,286047004.0,N
1692932955.9,286047004.0,N
1692932975.8,286047005.7,Y
1692932995.6,286047002.6,P
1692933015.4,286047002.2,P
1692933035.3,286047001.9,P
1692933055.1,286047004.9,Y
1692933056.0,286047004.9,P
1692933075.8,286047001.2,N
1692933095.7,286047001.2,N
1692933115.5,286046998.6,N
1692933135.3,286046996.5,N
1692933155.2,286046996.5,N
1692933175.9,286046996.7,N
1692933195.7,286046999.6,N
1692933215.6,286046998.3,N
1692933235.4,286046998.2,N
1692933255.2,286046999.1,N
1692933275.1,286047004.3,N
1692933276.0,286047004.3,N
1692933295.8,286047002.8,N
1692933315.6,286047000.6,N
1692933335.5,286047002.1,N
1692933355.3,286047001.3,N
1692933375.1,286046996.5,N
1692933395.9,286046999.1,N
1692933415.7,286046998.4,N
1692933435.5,286046998.2,N
1692933455.4,286046999.8,N
1692933475.2,286047002.6,N
1692933495.0,286046999.7,N
1692933495.9,286046999.7,N
1692933515.8,286047000.2,N
1692933535.6,286047000.8,N
1692933555.4,286047000.3,N
1692933575.3,286046998.2,N
1692933595.1,286047000.0,N
1692933615.8,286047000.3,N
1692933635.7,286046999.7,N
1692933655.5,286047000.9,N
1692933675.3,286047000.2,N
1692933695.2,286047002.4,N
1692933715.0,286047001.0,N
1692933745.9,286047001.7,E
1692933755.8,286047002.7,N
1692933775.7,286046999.8,P
1692933795.5,286047000.7,N
1692933815.3,286047001.0,N
1692933835.2,286047000.4,N
1692933855.0,286047001.5,N
1692933855.9,286047001.5,N
1692933875.7,286047002.5,N
1692933895.6,286047000.4,N
1692933915.4,286047000.3,N
1692933935.2,286047000.2,N
1692933955.1,286047000.8,N
1692933956.0,286047000.8,N
1692933975.8,286047000.1,N
1692933995.6,286047000.1,N
1692934015.5,286047000.9,N
1692934035.3,286047002.7,Y
1692934055.2,286046998.5,P
1692934075.9,286047001.7,N
1692934095.7,286047006.8,P
1692934115.6,286047001.5,N
1692934135.4,286047001.2,N
1692934155.2,286046999.0,N
1692934175.1,286047000.7,N
1692934176.0,286047000.7,N
1692934195.8,286046998.2,N
1692934215.6,286046998.4,N
1692934235.5,286046998.9,N
1692934255.3,286046998.3,N
1692934275.1,286047002.4,N
1692934295.9,286047000.2,N
1692934315.7,286046998.1,N
1692934335.5,286046999.6,N
1692934355.4,286046999.2,N
1692934375.2,286046996.5,N
1692934395.0,286046999.1,N
1692934395.9,286046999.1,N
1692934415.8,286046997.0,N
1692934435.6,286046996.8,N
1692934455.4,286046999.6,N
1692934475.3,286046999.1,N
1692934495.1,286047000.7,N
1692934496.0,286047000.7,N
1692934515.8,286046999.8,N
1692934535.7,286047000.7,N
1692934555.5,286046999.0,N
1692934575.3,286046998.4,N
1692934595.2,286046998.8,N
1692934615.9,286046999.3,N
1692934635.7,286046998.6,N
1692934655.6,286047001.1,N
1692934675.4,286047001.2,N
1692934695.2,286047001.0,N
1692934715.1,286046998.6,N
1692934716.0,286046998.6,N
1692934735.8,286047001.8,N
1692934755.6,286047001.5,N
1692934775.5,286047002.7,N
1692934795.3,286047001.9,N
1692934815.1,286047000.0,N
1692934835.9,286047002.7,N
1692934855.7,286047000.6,N
1692934875.5,286047000.8,N
1692934895.4,286047000.4,N
1692934915.2,286047000.9,N
1692934935.0,286047000.9,N
1692934935.9,286047000.9,N
1692934955.8,286046998.5,N
1692934975.6,286047005.8,Y
1692934995.4,286047001.8,P
1692935015.3,286046999.7,N
1692935035.1,286046999.7,N
1692935055.8,286047001.1,N
1692935075.7,286046998.1,N
1692935095.5,286046998.5,N
1692935115.3,286047000.3,N
1692935135.2,286047000.0,N
1692935155.0,286047000.4,N
1692935155.9,286047000.4,N
1692935175.7,286047000.5,N
1692935195.6,286047001.1,N
1692935215.4,286047000.3,N
1692935235.2,286047000.8,N
1692935255.1,286046999.9,N
1692935256.0,286046999.9,N
1692935275.8,286047002.5,N
1692935295.6,286047002.8,N
1692935345.5,286047009.7,E
1692935355.4,286047005.6,N
1692935375.3,286046995.9,P
1692935395.1,286046993.9,N
1692935415.8,286046999.2,N
1692935435.7,286046995.2,N
1692935455.5,286046996.2,N
1692935475.3,286046995.1,N
1692935495.2,286046995.7,N
1692935515.0,286046995.0,N
1692935515.9,286046995.0,N
1692935535.7,286046995.2,N
1692935555.6,286046994.2,N
1692935575.4,286046992.0,N
1692935595.2,286046990.2,Y
1692935615.1,286046996.3,P
1692935616.0,286046996.3,P
1692935635.8,286046997.6,P
1692935655.7,286046995.4,Y
1692935675.5,286046998.6,P
1692935695.3,286047000.1,N
1692935715.2,286047000.7,N
1692935735.9,286046999.9,N
1692935755.7,286047002.6,N
1692935775.6,286047000.4,N
1692935795.4,286047000.4,N
1692935815.2,286047000.3,N
1692935835.1,286046998.2,N
1692935836.0,286046998.2,N
1692935855.8,286047001.2,N
1692935875.6,286046998.1,N
1692935895.5,286047003.8,N
1692935915.3,286047002.2,N
1692935935.1,286047002.8,N
1692935955.9,286047002.2,N
1692935975.7,286047002.7,N
1692935995.5,286047002.1,N
